Fairfield County (LHQ)

 

Airport Diagram
No Airport Diagram Available
Current Weather/Forecast (VFR Conditions)
METAR KLHQ 182353Z AUTO 28005KT 10SM CLR 13/M03 A2986 RMK AO2 SLP112 T01281028 10172 20128 58001
TAF

Airport Information

All Charts
General
Chart Name View
TAKEOFF MINIMUMS
ALTERNATE MINIMUMS
TAKEOFF MINIMUMS
ALTERNATE MINIMUMS

Arrivals
Chart Name Download
GAILL THREE (RNAV)
GUNNE FOUR
GUNNE FOUR, CONT.1
GAILL THREE (RNAV)
GUNNE FOUR
GUNNE FOUR, CONT.1

Approaches
Chart Name Download
RNAV (GPS) RWY 10
RNAV (GPS) RWY 28
VOR OR GPS-A
RNAV (GPS) RWY 10
RNAV (GPS) RWY 28
VOR OR GPS-A


Airport Statistics
Departures Arrivals Local
All Collected Stats since June 2016: 23 25 10
2021 Stats: 5 1 1
April Stats: 1 0 0

Inbound Traffic (Arrivals) - 0

No inbound traffic.


Outbound Traffic (Departures) - 0

No outbound traffic.


Local Traffic (Pattern) - 0

No local traffic.